AFV205 TNCA-FQMA

Flight info

Callsign AFV205
Flight time N/A
Altitude 37000
Route DCADRIV1F ADRIV PJG UL219 MEGIR UP671 POS UG449 ZY UG443 MIKOK UN662 TEKAD UN650 OIA LIXON PULOB UM791 ISUPI UZ81 FLZ ORUTA OGPER PUDON 07S030W 12S020W 16S010W BUTOG UL340 APRAS 18S000E 21S010E APGEK UN182 VEDRY AVULA UL435 UTRUK ORNAD ORNAD1B
Aircraft B77W/H-SDE1E2E3FGHIJ2J3J4J5M1RWXY/LB1D1

Departure

Time 2026-05-08 22:31
Airport Queen Beatrix International Airport (TNCA)

Arrival

Time N/A
Airport Maputo Airport (FQMA)
Time Latitude Longitude Altitude Speed Heading
2026-05-08 22:00 12.50336 -70.01058 48 ft 0 kts
2026-05-08 22:21 12.50331 -70.01059 48 ft 2 kts
2026-05-08 22:21 12.50315 -70.01061 43 ft 2 kts
2026-05-08 22:22 12.50298 -70.01062 44 ft 2 kts
2026-05-08 22:22 12.50282 -70.01061 44 ft 2 kts 351°
2026-05-08 22:22 12.50266 -70.01057 47 ft 2 kts 323°
2026-05-08 22:22 12.50257 -70.01044 44 ft 2 kts 286°
2026-05-08 22:23 12.50255 -70.01039 45 ft 0 kts 284°
2026-05-08 22:23 12.50256 -70.01040 45 ft 0 kts 284°
2026-05-08 22:25 12.50256 -70.01043 44 ft 1 kts 284°
2026-05-08 22:25 12.50253 -70.01082 48 ft 8 kts 253°
2026-05-08 22:26 12.50238 -70.01136 47 ft 8 kts 258°
2026-05-08 22:26 12.50241 -70.01193 46 ft 8 kts 283°
2026-05-08 22:26 12.50253 -70.01252 45 ft 9 kts 282°
2026-05-08 22:26 12.50266 -70.01311 44 ft 9 kts 283°
2026-05-08 22:27 12.50280 -70.01370 43 ft 9 kts 284°
2026-05-08 22:27 12.50310 -70.01492 41 ft 23 kts 284°
2026-05-08 22:27 12.50344 -70.01634 38 ft 20 kts 283°
2026-05-08 22:27 12.50377 -70.01774 35 ft 20 kts 283°
2026-05-08 22:28 12.50411 -70.01913 33 ft 20 kts 284°
2026-05-08 22:28 12.50445 -70.02053 30 ft 20 kts 284°
2026-05-08 22:28 12.50479 -70.02192 27 ft 20 kts 284°
2026-05-08 22:28 12.50501 -70.02284 31 ft 20 kts 284°
2026-05-08 22:29 12.50534 -70.02424 26 ft 20 kts 283°
2026-05-08 22:29 12.50567 -70.02564 21 ft 20 kts 284°
2026-05-08 22:29 12.50572 -70.02647 20 ft 11 kts 256°
2026-05-08 22:29 12.50544 -70.02716 19 ft 11 kts 244°
2026-05-08 22:30 12.50508 -70.02782 18 ft 11 kts 231°
2026-05-08 22:30 12.50449 -70.02798 19 ft 7 kts 135°
2026-05-08 22:30 12.50441 -70.02776 19 ft 0 kts 107°
2026-05-08 22:30 12.50426 -70.02723 19 ft 39 kts 105°
2026-05-08 22:31 12.50284 -70.02128 28 ft 132 kts 104°
2026-05-08 22:31 12.50002 -70.00993 265 ft 191 kts 103°
2026-05-08 22:31 12.49672 -69.99692 1618 ft 188 kts 101°
2026-05-08 22:31 12.49355 -69.98359 2533 ft 197 kts 102°
2026-05-08 22:32 12.49016 -69.96902 2741 ft 225 kts 102°
2026-05-08 22:32 12.48632 -69.95271 3166 ft 242 kts 102°
2026-05-08 22:32 12.48234 -69.93578 3851 ft 248 kts 102°
2026-05-08 22:32 12.47847 -69.91842 4623 ft 250 kts 101°
2026-05-08 22:33 12.47515 -69.90086 5332 ft 256 kts 100°
2026-05-08 22:33 12.47181 -69.88268 6020 ft 261 kts 100°
2026-05-08 22:33 12.46841 -69.86413 6616 ft 269 kts 100°
2026-05-08 22:33 12.46496 -69.84543 7352 ft 269 kts 99°
2026-05-08 22:34 12.46150 -69.82674 8111 ft 267 kts 99°
2026-05-08 22:34 12.45799 -69.80776 8660 ft 275 kts 99°
2026-05-08 22:34 12.45439 -69.78851 9326 ft 279 kts 99°
2026-05-08 22:34 12.45076 -69.76914 10012 ft 279 kts 99°
2026-05-08 22:35 12.44708 -69.74948 10547 ft 286 kts 99°
2026-05-08 22:35 12.44319 -69.72865 10689 ft 309 kts 99°
2026-05-08 22:35 12.43902 -69.70638 10843 ft 331 kts 99°
2026-05-08 22:35 12.43452 -69.68243 11010 ft 351 kts 99°
2026-05-08 22:36 12.42986 -69.65771 11396 ft 364 kts 99°
2026-05-08 22:36 12.42492 -69.63158 11885 ft 374 kts 99°
2026-05-08 22:36 12.41995 -69.60540 12583 ft 376 kts 99°
2026-05-08 22:36 12.41500 -69.57933 13294 ft 379 kts 99°
2026-05-08 22:37 12.41001 -69.55298 13999 ft 380 kts 99°
2026-05-08 22:37 12.40494 -69.52619 14552 ft 385 kts 99°
2026-05-08 22:37 12.39979 -69.49906 15105 ft 390 kts 99°
2026-05-08 22:37 12.39463 -69.47186 15805 ft 390 kts 99°
2026-05-08 22:38 12.38944 -69.44451 16362 ft 394 kts 99°
2026-05-08 22:38 12.38418 -69.41680 16906 ft 399 kts 99°
2026-05-08 22:38 12.37886 -69.38873 17422 ft 404 kts 99°
2026-05-08 22:38 12.37348 -69.36043 17995 ft 406 kts 99°
2026-05-08 22:39 12.36806 -69.33193 18479 ft 411 kts 99°
2026-05-08 22:39 12.36260 -69.30323 18939 ft 414 kts 99°
2026-05-08 22:39 12.35708 -69.27425 19433 ft 416 kts 99°
2026-05-08 22:39 12.35154 -69.24517 19924 ft 418 kts 99°
2026-05-08 22:40 12.34595 -69.21581 20418 ft 421 kts 99°
2026-05-08 22:40 12.34033 -69.18638 20894 ft 423 kts 99°
2026-05-08 22:40 12.33468 -69.15672 21366 ft 426 kts 98°
2026-05-08 22:40 12.32899 -69.12693 21822 ft 429 kts 98°
2026-05-08 22:41 12.32326 -69.09693 22278 ft 431 kts 98°
2026-05-08 22:41 12.31750 -69.06679 22763 ft 434 kts 98°
2026-05-08 22:41 12.31169 -69.03643 23200 ft 436 kts 98°
2026-05-08 22:41 12.30585 -69.00590 23606 ft 439 kts 98°
2026-05-08 22:42 12.29996 -68.97516 23931 ft 442 kts 98°
2026-05-08 22:42 12.29403 -68.94417 24237 ft 446 kts 98°
2026-05-08 22:42 12.28803 -68.91288 24538 ft 449 kts 98°
2026-05-08 22:42 12.28199 -68.88143 24859 ft 453 kts 98°
2026-05-08 22:43 12.27591 -68.84973 25180 ft 456 kts 98°
2026-05-08 22:43 12.26978 -68.81785 25507 ft 458 kts 98°
2026-05-08 22:43 12.26361 -68.78575 25813 ft 461 kts 98°
2026-05-08 22:43 12.25740 -68.75348 26103 ft 465 kts 98°
2026-05-08 22:44 12.25114 -68.72096 26401 ft 468 kts 98°
2026-05-08 22:44 12.24481 -68.68812 26687 ft 471 kts 98°
2026-05-08 22:44 12.23847 -68.65521 26975 ft 474 kts 98°
2026-05-08 22:44 12.23206 -68.62201 27267 ft 477 kts 98°
2026-05-08 22:45 12.22563 -68.58868 27547 ft 480 kts 98°
2026-05-08 22:45 12.21914 -68.55508 27829 ft 483 kts 98°
2026-05-08 22:45 12.21261 -68.52129 28106 ft 486 kts 98°
2026-05-08 22:45 12.20603 -68.48734 28391 ft 488 kts 98°
2026-05-08 22:46 12.19944 -68.45327 28652 ft 490 kts 98°
2026-05-08 22:46 12.19281 -68.41903 28870 ft 493 kts 98°
2026-05-08 22:46 12.18614 -68.38459 29101 ft 495 kts 98°
2026-05-08 22:46 12.17943 -68.34999 29308 ft 498 kts 98°
2026-05-08 22:47 12.17268 -68.31522 29578 ft 499 kts 98°
2026-05-08 22:47 12.16590 -68.28037 29904 ft 499 kts 98°
2026-05-08 22:47 12.15913 -68.24556 30204 ft 499 kts 98°
2026-05-08 22:47 12.15237 -68.21081 30512 ft 498 kts 98°
2026-05-08 22:48 12.14560 -68.17609 30832 ft 498 kts 98°
2026-05-08 22:48 12.13885 -68.14142 31159 ft 497 kts 98°
2026-05-08 22:48 12.13211 -68.10683 31440 ft 497 kts 98°
2026-05-08 22:48 12.12535 -68.07216 31707 ft 497 kts 98°
2026-05-08 22:49 12.11861 -68.03763 31973 ft 497 kts 98°
2026-05-08 22:49 12.10508 -67.96834 32521 ft 497 kts 98°
2026-05-08 22:49 12.09831 -67.93372 32786 ft 497 kts 98°
2026-05-08 22:50 12.09153 -67.89904 33044 ft 497 kts 98°
2026-05-08 22:50 12.08476 -67.86446 33294 ft 497 kts 98°
2026-05-08 22:50 12.07773 -67.82985 33546 ft 498 kts 101°
2026-05-08 22:50 12.06822 -67.79583 33774 ft 499 kts 105°
2026-05-08 22:51 12.05760 -67.76246 33985 ft 500 kts 105°
2026-05-08 22:51 12.04655 -67.72829 34192 ft 500 kts 105°
2026-05-08 22:51 12.03569 -67.69455 34395 ft 500 kts 105°
2026-05-08 22:51 12.02508 -67.66127 34592 ft 499 kts 105°
2026-05-08 22:52 12.01430 -67.62709 34780 ft 499 kts 105°
2026-05-08 22:52 12.00381 -67.59368 34940 ft 500 kts 105°
2026-05-08 22:52 11.99320 -67.55982 35053 ft 502 kts 105°
2026-05-08 22:52 11.98256 -67.52585 35149 ft 504 kts 105°
2026-05-08 22:53 11.97185 -67.49174 35253 ft 505 kts 105°
2026-05-08 22:53 11.96108 -67.45747 35357 ft 507 kts 105°
2026-05-08 22:53 11.95029 -67.42321 35463 ft 508 kts 105°
2026-05-08 22:53 11.93946 -67.38885 35568 ft 509 kts 105°
2026-05-08 22:54 11.91773 -67.32002 35736 ft 511 kts 105°
2026-05-08 22:54 11.89584 -67.25075 35906 ft 513 kts 106°
2026-05-08 22:55 11.87390 -67.18134 36076 ft 514 kts 105°
2026-05-08 22:55 11.85186 -67.11170 36236 ft 516 kts 105°
2026-05-08 22:56 11.82977 -67.04191 36343 ft 518 kts 106°
2026-05-08 22:56 11.80756 -66.97182 36456 ft 519 kts 106°
2026-05-08 22:57 11.78532 -66.90165 36579 ft 520 kts 106°
2026-05-08 22:57 11.76345 -66.83103 36639 ft 522 kts 105°
2026-05-08 22:58 11.74201 -66.76006 36696 ft 524 kts 105°
2026-05-08 22:58 11.72045 -66.68909 36835 ft 524 kts 105°
2026-05-08 22:59 11.69889 -66.61849 36910 ft 524 kts 105°
2026-05-08 22:59 11.67719 -66.54748 36923 ft 524 kts 105°
2026-05-08 23:00 11.65548 -66.47639 36914 ft 525 kts 105°
2026-05-08 23:00 11.63376 -66.40529 36928 ft 525 kts 105°
2026-05-08 23:01 11.61202 -66.33419 36923 ft 526 kts 105°
2026-05-08 23:01 11.59020 -66.26294 36921 ft 526 kts 105°
2026-05-08 23:02 11.56836 -66.19166 36916 ft 526 kts 105°
2026-05-08 23:02 11.54648 -66.12031 36915 ft 527 kts 105°
2026-05-08 23:03 11.52455 -66.04889 36917 ft 527 kts 105°
2026-05-08 23:03 11.50264 -65.97757 36917 ft 527 kts 105°
2026-05-08 23:04 11.48071 -65.90623 36916 ft 528 kts 105°
2026-05-08 23:04 11.45886 -65.83520 36930 ft 528 kts 105°
2026-05-08 23:05 11.43671 -65.76329 36908 ft 528 kts 105°
2026-05-08 23:05 11.41481 -65.69235 36921 ft 529 kts 106°
2026-05-08 23:06 11.39270 -65.62085 36913 ft 529 kts 106°
2026-05-08 23:06 11.37118 -65.55129 36907 ft 529 kts 106°
2026-05-08 23:07 11.34907 -65.47986 36913 ft 530 kts 106°
2026-05-08 23:07 11.32687 -65.40824 36925 ft 530 kts 106°
2026-05-08 23:08 11.30465 -65.33657 36908 ft 531 kts 107°
2026-05-08 23:08 11.28243 -65.26499 36914 ft 532 kts 107°
2026-05-08 23:09 11.26007 -65.19303 36927 ft 533 kts 107°
2026-05-08 23:09 11.23768 -65.12104 36916 ft 534 kts 107°
2026-05-08 23:10 11.21520 -65.04882 36912 ft 535 kts 107°
2026-05-08 23:10 11.19647 -64.98871 36915 ft 536 kts 107°
2026-05-08 23:11 11.17391 -64.91633 36926 ft 537 kts 107°
2026-05-08 23:11 11.15129 -64.84386 36910 ft 538 kts 107°
2026-05-08 23:12 11.12864 -64.77135 36920 ft 538 kts 107°
2026-05-08 23:12 11.10592 -64.69865 36918 ft 539 kts 107°
2026-05-08 23:13 11.08319 -64.62594 36920 ft 539 kts 106°
2026-05-08 23:13 11.06359 -64.55225 36929 ft 539 kts 103°
2026-05-08 23:14 11.04542 -64.47822 36910 ft 539 kts 103°
2026-05-08 23:14 11.02710 -64.40416 36923 ft 540 kts 103°
2026-05-08 23:15 11.00849 -64.33015 36917 ft 540 kts 104°
2026-05-08 23:15 10.98977 -64.25603 36936 ft 541 kts 104°
2026-05-08 23:16 10.97105 -64.18190 36909 ft 541 kts 104°
2026-05-08 23:16 10.95232 -64.10771 36928 ft 541 kts 104°
2026-05-08 23:17 10.93369 -64.03400 36928 ft 542 kts 104°
2026-05-08 23:17 10.91493 -63.95973 36920 ft 542 kts 103°
2026-05-08 23:18 10.89978 -63.88458 36936 ft 542 kts 100°
2026-05-08 23:18 10.88607 -63.80912 36916 ft 543 kts 100°
2026-05-08 23:19 10.87212 -63.73314 36926 ft 543 kts 101°
2026-05-08 23:19 10.85797 -63.65764 36918 ft 544 kts 101°
2026-05-08 23:20 10.84369 -63.58202 36922 ft 544 kts 101°
2026-05-08 23:20 10.82941 -63.50634 36919 ft 545 kts 101°
2026-05-08 23:21 10.81512 -63.43061 36928 ft 545 kts 101°
2026-05-08 23:21 10.80080 -63.35482 36917 ft 546 kts 101°
2026-05-08 23:22 10.78644 -63.27892 36903 ft 547 kts 102°
2026-05-08 23:22 10.77202 -63.20283 36926 ft 548 kts 102°
2026-05-08 23:23 10.75758 -63.12668 36921 ft 549 kts 102°
2026-05-08 23:23 10.74307 -63.05041 36923 ft 551 kts 102°
2026-05-08 23:24 10.72850 -62.97390 36922 ft 552 kts 102°
2026-05-08 23:24 10.71389 -62.89722 36921 ft 553 kts 102°
2026-05-08 23:25 10.69924 -62.82042 36930 ft 553 kts 102°
2026-05-08 23:25 10.68453 -62.74356 36908 ft 554 kts 102°
2026-05-08 23:26 10.66997 -62.66731 36933 ft 553 kts 102°
2026-05-08 23:26 10.65526 -62.59051 36923 ft 553 kts 102°
2026-05-08 23:27 10.64058 -62.51362 36924 ft 552 kts 102°
2026-05-08 23:27 10.62582 -62.43711 36923 ft 552 kts 103°
2026-05-08 23:28 10.61100 -62.36044 36932 ft 553 kts 102°
2026-05-08 23:28 10.59623 -62.28368 36927 ft 553 kts 102°
2026-05-08 23:29 10.58150 -62.20718 36928 ft 553 kts 103°
2026-05-08 23:29 10.56667 -62.13038 36927 ft 554 kts 103°
2026-05-08 23:30 10.55182 -62.05362 36925 ft 553 kts 103°
2026-05-08 23:30 10.53706 -61.97738 36924 ft 553 kts 103°
2026-05-08 23:31 10.52220 -61.90073 36926 ft 553 kts 103°
2026-05-08 23:31 10.51065 -61.82337 36927 ft 554 kts 97°
2026-05-08 23:32 10.50303 -61.74501 36910 ft 554 kts 97°
2026-05-08 23:32 10.49536 -61.66766 36915 ft 553 kts 97°
2026-05-08 23:33 10.48723 -61.59001 36914 ft 553 kts 97°
2026-05-08 23:33 10.47897 -61.51187 36916 ft 552 kts 97°
2026-05-08 23:34 10.46914 -61.43459 36904 ft 549 kts 106°
2026-05-08 23:34 10.44153 -61.36375 36926 ft 540 kts 123°
2026-05-08 23:35 10.39779 -61.30277 36955 ft 533 kts 134°
2026-05-08 23:35 10.35052 -61.24474 36927 ft 533 kts 134°
2026-05-08 23:36 10.30350 -61.18627 36923 ft 534 kts 133°
2026-05-08 23:36 10.25657 -61.12707 36913 ft 535 kts 133°
2026-05-08 23:37 10.21006 -61.06814 36936 ft 535 kts 133°
2026-05-08 23:37 10.16354 -61.00926 36939 ft 534 kts 133°
2026-05-08 23:38 10.11733 -60.95087 36941 ft 533 kts 133°
2026-05-08 23:38 10.07087 -60.89223 36929 ft 532 kts 133°
2026-05-08 23:39 10.02451 -60.83374 36916 ft 532 kts 133°
2026-05-08 23:39 9.97817 -60.77531 36929 ft 531 kts 133°
2026-05-08 23:40 9.93191 -60.71699 36939 ft 530 kts 133°
2026-05-08 23:40 9.88565 -60.65872 36929 ft 529 kts 133°
2026-05-08 23:41 9.83951 -60.60061 36928 ft 528 kts 133°
2026-05-08 23:41 9.79366 -60.54291 36931 ft 527 kts 133°
2026-05-08 23:42 9.74767 -60.48506 36931 ft 527 kts 133°
2026-05-08 23:42 9.70167 -60.42721 36924 ft 526 kts 133°
2026-05-08 23:43 9.65577 -60.36954 36926 ft 526 kts 133°
2026-05-08 23:43 9.60982 -60.31182 36931 ft 525 kts 133°
2026-05-08 23:44 9.56392 -60.25419 36926 ft 525 kts 133°
2026-05-08 23:44 9.51799 -60.19654 36934 ft 525 kts 133°
2026-05-08 23:45 9.47212 -60.13901 36929 ft 525 kts 133°
2026-05-08 23:45 9.42623 -60.08148 36931 ft 525 kts 133°
2026-05-08 23:46 9.38031 -60.02393 36931 ft 525 kts 133°
2026-05-08 23:46 9.33442 -59.96645 36928 ft 525 kts 133°
2026-05-08 23:47 9.28849 -59.90895 36927 ft 525 kts 133°
2026-05-08 23:47 9.24259 -59.85150 36928 ft 525 kts 134°
2026-05-08 23:48 9.19665 -59.79404 36929 ft 525 kts 134°
2026-05-08 23:48 9.15101 -59.73697 36911 ft 524 kts 133°
2026-05-08 23:49 9.10484 -59.67927 36919 ft 524 kts 133°
2026-05-08 23:49 9.05905 -59.62206 36920 ft 524 kts 133°
2026-05-08 23:50 9.01316 -59.56476 36928 ft 523 kts 134°
2026-05-08 23:50 8.96736 -59.50759 36922 ft 523 kts 134°
2026-05-08 23:51 8.92151 -59.45037 36922 ft 523 kts 134°
2026-05-08 23:51 8.87576 -59.39336 36922 ft 522 kts 134°
2026-05-08 23:52 8.83764 -59.34589 36923 ft 522 kts 134°
2026-05-08 23:52 8.79191 -59.28895 36914 ft 522 kts 134°
2026-05-08 23:53 8.73875 -59.22276 36920 ft 521 kts 134°
2026-05-08 23:53 8.69304 -59.16587 36924 ft 521 kts 134°
2026-05-08 23:54 8.65476 -59.11826 36919 ft 521 kts 134°
2026-05-08 23:55 8.58619 -59.03300 36924 ft 521 kts 134°
2026-05-08 23:55 8.54045 -58.97614 36920 ft 521 kts 134°
2026-05-08 23:56 8.49498 -58.91965 36922 ft 521 kts 134°
2026-05-08 23:56 8.44915 -58.86278 36924 ft 521 kts 134°
2026-05-08 23:57 8.40334 -58.80593 36915 ft 521 kts 134°
2026-05-08 23:57 8.35757 -58.74914 36920 ft 521 kts 134°
2026-05-08 23:58 8.31173 -58.69227 36925 ft 522 kts 134°
2026-05-08 23:58 8.26593 -58.63549 36921 ft 522 kts 134°
2026-05-08 23:59 8.22008 -58.57865 36922 ft 522 kts 134°
2026-05-08 23:59 8.17419 -58.52184 36924 ft 522 kts 134°
2026-05-09 00:00 8.12836 -58.46511 36921 ft 522 kts 134°
2026-05-09 00:00 8.08249 -58.40835 36926 ft 522 kts 134°
2026-05-09 00:01 8.03691 -58.35196 36929 ft 521 kts 134°
2026-05-09 00:01 7.99106 -58.29525 36924 ft 521 kts 134°
2026-05-09 00:02 7.94527 -58.23862 36928 ft 520 kts 134°
2026-05-09 00:02 7.89956 -58.18213 36925 ft 519 kts 134°
2026-05-09 00:03 7.85395 -58.12577 36926 ft 519 kts 134°
2026-05-09 00:03 7.80834 -58.06947 36924 ft 518 kts 134°
2026-05-09 00:04 7.76248 -58.01340 36924 ft 517 kts 134°
2026-05-09 00:04 7.71667 -57.95751 36921 ft 517 kts 134°
2026-05-09 00:05 7.67090 -57.90157 36932 ft 517 kts 134°
2026-05-09 00:05 7.62523 -57.84540 36937 ft 518 kts 134°
2026-05-09 00:06 7.57978 -57.78900 36916 ft 518 kts 133°
2026-05-09 00:06 7.53459 -57.73297 36934 ft 519 kts 134°
2026-05-09 00:07 7.48897 -57.67650 36939 ft 519 kts 134°
2026-05-09 00:07 7.44333 -57.62007 36938 ft 520 kts 134°
2026-05-09 00:08 7.39765 -57.56357 36918 ft 520 kts 134°
2026-05-09 00:08 7.35188 -57.50700 36914 ft 521 kts 134°
2026-05-09 00:09 7.30600 -57.45053 36938 ft 521 kts 134°
2026-05-09 00:09 7.26004 -57.39411 36935 ft 521 kts 134°
2026-05-09 00:10 7.21405 -57.33763 36931 ft 521 kts 134°
2026-05-09 00:10 7.16820 -57.28131 36926 ft 520 kts 134°
2026-05-09 00:11 7.12265 -57.22536 36931 ft 520 kts 134°
2026-05-09 00:11 7.07679 -57.16906 36931 ft 519 kts 134°
2026-05-09 00:12 7.03092 -57.11277 36939 ft 519 kts 134°
2026-05-09 00:12 6.98518 -57.05664 36935 ft 518 kts 134°
2026-05-09 00:13 6.93946 -57.00056 36935 ft 518 kts 134°
2026-05-09 00:13 6.89374 -56.94455 36935 ft 518 kts 134°
2026-05-09 00:14 6.84801 -56.88853 36940 ft 517 kts 134°
2026-05-09 00:14 6.80238 -56.83264 36934 ft 517 kts 133°
2026-05-09 00:15 6.75674 -56.77674 36934 ft 517 kts 133°
2026-05-09 00:15 6.71112 -56.72088 36937 ft 516 kts 134°
2026-05-09 00:16 6.66543 -56.66496 36932 ft 516 kts 133°
2026-05-09 00:16 6.61989 -56.60924 36937 ft 516 kts 133°
2026-05-09 00:17 6.57458 -56.55382 36941 ft 516 kts 133°
2026-05-09 00:17 6.52906 -56.49815 36938 ft 515 kts 133°
2026-05-09 00:18 6.48351 -56.44247 36939 ft 515 kts 133°
2026-05-09 00:18 6.43797 -56.38682 36940 ft 515 kts 133°
2026-05-09 00:19 6.39250 -56.33127 36940 ft 514 kts 133°
2026-05-09 00:19 6.34704 -56.27576 36944 ft 514 kts 133°
2026-05-09 00:20 6.30159 -56.22026 36937 ft 513 kts 133°
2026-05-09 00:20 6.25619 -56.16485 36942 ft 512 kts 133°
2026-05-09 00:21 6.21092 -56.10961 36938 ft 512 kts 133°
2026-05-09 00:21 6.16571 -56.05447 36941 ft 511 kts 133°
2026-05-09 00:22 6.12060 -55.99945 36944 ft 510 kts 133°
2026-05-09 00:22 6.07542 -55.94439 36944 ft 510 kts 133°
2026-05-09 00:23 6.03036 -55.88947 36945 ft 510 kts 133°
2026-05-09 00:23 5.98524 -55.83450 36948 ft 509 kts 133°
2026-05-09 00:24 5.94043 -55.77991 36946 ft 509 kts 134°
2026-05-09 00:24 5.89528 -55.72494 36944 ft 509 kts 134°
2026-05-09 00:25 5.85022 -55.67009 36940 ft 509 kts 134°
2026-05-09 00:25 5.80515 -55.61523 36939 ft 509 kts 134°
2026-05-09 00:26 5.76003 -55.56034 36940 ft 509 kts 134°
2026-05-09 00:26 5.71466 -55.50515 36943 ft 509 kts 134°
2026-05-09 00:27 5.66956 -55.45031 36939 ft 509 kts 134°
2026-05-09 00:27 5.62445 -55.39546 36938 ft 509 kts 134°
2026-05-09 00:28 5.57970 -55.34107 36937 ft 508 kts 134°
2026-05-09 00:28 5.53474 -55.28643 36964 ft 508 kts 134°
2026-05-09 00:29 5.48978 -55.23180 36968 ft 507 kts 133°
2026-05-09 00:29 5.45236 -55.17124 36967 ft 517 kts 117°
2026-05-09 00:30 5.43067 -55.10224 36968 ft 523 kts 105°
2026-05-09 00:30 5.41578 -55.03074 36961 ft 524 kts 105°
2026-05-09 00:31 5.40075 -54.95921 36956 ft 524 kts 105°
2026-05-09 00:31 5.38513 -54.88786 36952 ft 524 kts 106°
2026-05-09 00:32 5.36926 -54.81643 36948 ft 524 kts 106°
2026-05-09 00:32 5.35337 -54.74496 36951 ft 524 kts 105°
2026-05-09 00:33 5.33752 -54.67349 36950 ft 525 kts 105°
2026-05-09 00:33 5.32168 -54.60200 36946 ft 525 kts 105°
2026-05-09 00:34 5.30585 -54.53062 36951 ft 524 kts 105°
2026-05-09 00:34 5.28999 -54.45916 36948 ft 525 kts 105°
2026-05-09 00:35 5.27411 -54.38768 36954 ft 525 kts 105°
2026-05-09 00:35 5.25746 -54.31645 36952 ft 523 kts 109°
2026-05-09 00:36 5.23122 -54.24896 36954 ft 516 kts 119°
2026-05-09 00:36 5.19987 -54.18466 36958 ft 515 kts 119°
2026-05-09 00:37 5.16848 -54.11993 36954 ft 515 kts 119°
2026-05-09 00:37 5.13753 -54.05526 36955 ft 514 kts 119°
2026-05-09 00:38 5.11190 -54.00143 36955 ft 513 kts 119°
2026-05-09 00:38 5.08117 -53.93688 36956 ft 512 kts 118°
2026-05-09 00:39 5.05048 -53.87248 36956 ft 512 kts 118°
2026-05-09 00:39 5.01976 -53.80807 36954 ft 511 kts 118°
2026-05-09 00:40 4.98912 -53.74384 36966 ft 511 kts 118°
2026-05-09 00:40 4.95842 -53.67953 36957 ft 510 kts 118°
2026-05-09 00:41 4.91265 -53.58366 36964 ft 510 kts 118°
2026-05-09 00:41 4.88205 -53.51959 36965 ft 509 kts 118°
2026-05-09 00:42 4.85149 -53.45561 36958 ft 508 kts 118°
2026-05-09 00:42 4.82093 -53.39165 36957 ft 508 kts 118°
2026-05-09 00:43 4.79046 -53.32790 36959 ft 507 kts 118°
2026-05-09 00:43 4.75993 -53.26407 36960 ft 507 kts 118°
2026-05-09 00:44 4.72941 -53.20024 36960 ft 507 kts 118°
2026-05-09 00:44 4.69894 -53.13653 36958 ft 507 kts 118°
2026-05-09 00:45 4.66850 -53.07291 36960 ft 506 kts 118°
2026-05-09 00:45 4.63757 -53.00950 36956 ft 505 kts 121°
2026-05-09 00:46 4.60043 -52.95002 36964 ft 503 kts 126°
2026-05-09 00:46 4.56211 -52.89139 36956 ft 503 kts 125°
2026-05-09 00:47 4.52419 -52.83293 36956 ft 503 kts 125°
2026-05-09 00:47 4.48611 -52.77369 36955 ft 502 kts 124°
2026-05-09 00:48 4.44856 -52.71513 36960 ft 502 kts 124°
2026-05-09 00:48 4.41079 -52.65627 36953 ft 502 kts 124°
2026-05-09 00:49 4.37306 -52.59752 36956 ft 501 kts 124°
2026-05-09 00:49 4.33534 -52.53880 36956 ft 501 kts 124°
2026-05-09 00:50 4.29762 -52.48011 36955 ft 501 kts 124°
2026-05-09 00:50 4.25993 -52.42146 36960 ft 500 kts 124°
2026-05-09 00:51 4.22221 -52.36278 36961 ft 500 kts 124°
2026-05-09 00:51 4.18456 -52.30423 36963 ft 500 kts 124°
2026-05-09 00:52 4.14692 -52.24569 36959 ft 500 kts 124°
2026-05-09 00:52 4.10929 -52.18719 36958 ft 500 kts 124°
2026-05-09 00:53 4.07167 -52.12871 36961 ft 499 kts 124°
2026-05-09 00:53 4.03405 -52.07025 36962 ft 499 kts 124°
2026-05-09 00:54 3.99642 -52.01178 36966 ft 499 kts 125°
2026-05-09 00:54 3.95880 -51.95334 36965 ft 499 kts 125°
2026-05-09 00:55 3.92145 -51.89532 36967 ft 499 kts 125°
2026-05-09 00:55 3.88366 -51.83662 36968 ft 498 kts 124°
2026-05-09 00:56 3.84713 -51.77759 36968 ft 499 kts 121°
2026-05-09 00:56 3.81382 -51.71705 36967 ft 499 kts 120°
2026-05-09 00:57 3.78068 -51.65601 36966 ft 499 kts 121°
2026-05-09 00:57 3.74736 -51.59504 36966 ft 498 kts 121°
2026-05-09 00:58 3.71395 -51.53422 36964 ft 498 kts 121°
2026-05-09 00:58 3.68052 -51.47351 36964 ft 498 kts 121°
2026-05-09 00:59 3.64708 -51.41277 36965 ft 498 kts 121°
2026-05-09 00:59 3.61364 -51.35202 36964 ft 498 kts 121°
2026-05-09 01:00 3.58023 -51.29132 36964 ft 498 kts 121°
2026-05-09 01:00 3.54677 -51.23055 36961 ft 498 kts 121°
2026-05-09 01:01 3.51333 -51.16981 36967 ft 499 kts 121°
2026-05-09 01:01 3.47983 -51.10900 36965 ft 499 kts 121°
2026-05-09 01:02 3.44631 -51.04814 36964 ft 500 kts 121°
2026-05-09 01:02 3.41272 -50.98719 36965 ft 500 kts 121°
2026-05-09 01:03 3.37912 -50.92622 36968 ft 500 kts 121°
2026-05-09 01:03 3.34549 -50.86520 36967 ft 500 kts 121°
2026-05-09 01:04 3.31184 -50.80416 36966 ft 500 kts 121°
2026-05-09 01:04 3.27824 -50.74322 36968 ft 500 kts 121°
2026-05-09 01:05 3.24462 -50.68226 36959 ft 500 kts 121°
2026-05-09 01:06 3.19443 -50.59128 36965 ft 499 kts 120°
2026-05-09 01:06 3.16086 -50.53043 36964 ft 499 kts 120°
2026-05-09 01:07 3.12730 -50.46961 36963 ft 499 kts 120°
2026-05-09 01:07 3.09377 -50.40886 36964 ft 499 kts 120°
2026-05-09 01:08 3.06025 -50.34813 36965 ft 498 kts 121°
2026-05-09 01:08 3.02676 -50.28747 36963 ft 498 kts 121°
2026-05-09 01:09 2.99327 -50.22682 36964 ft 498 kts 121°
2026-05-09 01:09 2.95977 -50.16616 36967 ft 498 kts 121°
2026-05-09 01:10 2.92627 -50.10553 36968 ft 498 kts 120°
2026-05-09 01:10 2.89277 -50.04489 36964 ft 498 kts 120°
2026-05-09 01:11 2.85927 -49.98426 36967 ft 498 kts 120°
2026-05-09 01:11 2.82580 -49.92368 36962 ft 498 kts 120°
2026-05-09 01:12 2.79226 -49.86300 36966 ft 498 kts 120°
2026-05-09 01:12 2.75876 -49.80239 36967 ft 498 kts 120°
2026-05-09 01:13 2.72522 -49.74173 36966 ft 498 kts 120°
2026-05-09 01:13 2.69189 -49.68146 36964 ft 498 kts 120°
2026-05-09 01:14 2.65832 -49.62075 36964 ft 499 kts 120°
2026-05-09 01:14 2.62475 -49.56007 36965 ft 499 kts 120°
2026-05-09 01:15 2.59118 -49.49938 36967 ft 499 kts 120°
2026-05-09 01:15 2.55757 -49.43863 36963 ft 499 kts 120°
2026-05-09 01:16 2.52399 -49.37794 36962 ft 499 kts 120°
2026-05-09 01:16 2.49043 -49.31730 36961 ft 498 kts 120°
2026-05-09 01:17 2.44015 -49.22646 36962 ft 497 kts 120°
2026-05-09 01:17 2.40667 -49.16599 36964 ft 496 kts 120°
2026-05-09 01:18 2.37329 -49.10569 36963 ft 495 kts 120°
2026-05-09 01:18 2.33993 -49.04545 36968 ft 494 kts 120°
2026-05-09 01:19 2.30667 -48.98540 36959 ft 494 kts 120°
2026-05-09 01:19 2.27341 -48.92535 36960 ft 493 kts 120°
2026-05-09 01:20 2.24043 -48.86580 36964 ft 492 kts 120°
2026-05-09 01:20 2.20702 -48.80551 36964 ft 492 kts 120°
2026-05-09 01:21 2.17406 -48.74602 36965 ft 492 kts 120°
2026-05-09 01:21 2.14085 -48.68608 36965 ft 493 kts 120°
2026-05-09 01:22 2.10760 -48.62608 36972 ft 493 kts 120°
2026-05-09 01:22 2.07996 -48.57623 36968 ft 493 kts 120°
2026-05-09 01:23 2.04668 -48.51619 36964 ft 493 kts 120°
2026-05-09 01:23 2.01343 -48.45622 36965 ft 493 kts 120°
2026-05-09 01:24 1.98021 -48.39629 36966 ft 492 kts 120°
2026-05-09 01:24 1.94702 -48.33642 36962 ft 492 kts 120°
2026-05-09 01:25 1.91386 -48.27664 36965 ft 491 kts 120°
2026-05-09 01:25 1.88076 -48.21696 36971 ft 491 kts 120°
2026-05-09 01:26 1.84765 -48.15726 36965 ft 490 kts 120°
2026-05-09 01:26 1.81460 -48.09769 36966 ft 490 kts 120°
2026-05-09 01:27 1.78150 -48.03802 36964 ft 490 kts 120°
2026-05-09 01:27 1.74844 -47.97844 36964 ft 490 kts 120°
2026-05-09 01:28 1.71536 -47.91882 36965 ft 491 kts 120°
2026-05-09 01:28 1.68226 -47.85918 36963 ft 491 kts 120°
2026-05-09 01:29 1.64931 -47.79978 36968 ft 492 kts 120°
2026-05-09 01:29 1.61607 -47.73991 36970 ft 493 kts 120°
2026-05-09 01:30 1.58273 -47.67986 36968 ft 494 kts 120°
2026-05-09 01:30 1.54937 -47.61975 36973 ft 495 kts 120°
2026-05-09 01:31 1.51597 -47.55958 36971 ft 495 kts 120°
2026-05-09 01:31 1.48255 -47.49940 36964 ft 495 kts 120°
2026-05-09 01:32 1.44916 -47.43925 36968 ft 495 kts 120°
2026-05-09 01:32 1.41577 -47.37910 36963 ft 494 kts 120°
2026-05-09 01:33 1.38241 -47.31904 36963 ft 494 kts 120°
2026-05-09 01:33 1.34911 -47.25906 36966 ft 493 kts 120°
2026-05-09 01:34 1.31582 -47.19912 36969 ft 493 kts 120°
2026-05-09 01:34 1.28256 -47.13923 36969 ft 493 kts 120°
2026-05-09 01:35 1.24926 -47.07926 36964 ft 493 kts 120°
2026-05-09 01:35 1.21613 -47.01924 36971 ft 493 kts 119°
2026-05-09 01:36 1.18358 -46.95887 36967 ft 493 kts 119°
2026-05-09 01:36 1.15120 -46.89865 36967 ft 493 kts 119°
2026-05-09 01:37 1.11868 -46.83833 36966 ft 493 kts 120°
2026-05-09 01:37 1.08614 -46.77808 36966 ft 492 kts 119°
2026-05-09 01:38 1.05364 -46.71794 36958 ft 491 kts 119°
2026-05-09 01:38 1.02122 -46.65796 36961 ft 490 kts 119°
2026-05-09 01:39 0.98883 -46.59802 36963 ft 490 kts 119°
2026-05-09 01:39 0.95668 -46.53851 36965 ft 490 kts 119°
2026-05-09 01:40 0.92431 -46.47863 36963 ft 490 kts 119°
2026-05-09 01:40 0.89198 -46.41880 36960 ft 490 kts 119°
2026-05-09 01:41 0.85958 -46.35886 36970 ft 490 kts 119°
2026-05-09 01:41 0.82719 -46.29893 36965 ft 490 kts 119°
2026-05-09 01:42 0.79476 -46.23894 36967 ft 491 kts 119°
2026-05-09 01:42 0.76228 -46.17886 36963 ft 491 kts 118°
2026-05-09 01:43 0.72981 -46.11879 36964 ft 491 kts 118°
2026-05-09 01:43 0.69736 -46.05876 36965 ft 491 kts 119°
2026-05-09 01:44 0.66486 -45.99864 36963 ft 491 kts 118°
2026-05-09 01:44 0.63240 -45.93860 36966 ft 491 kts 119°
2026-05-09 01:45 0.60010 -45.87885 36960 ft 491 kts 119°
2026-05-09 01:45 0.56759 -45.81874 36963 ft 491 kts 119°
2026-05-09 01:46 0.53513 -45.75871 36959 ft 491 kts 119°
2026-05-09 01:46 0.50263 -45.69859 36966 ft 492 kts 119°
2026-05-09 01:47 0.47012 -45.63846 36965 ft 492 kts 119°
2026-05-09 01:47 0.43756 -45.57825 36965 ft 492 kts 119°
2026-05-09 01:48 0.40499 -45.51802 36963 ft 492 kts 119°
2026-05-09 01:48 0.37265 -45.45821 36961 ft 493 kts 119°
2026-05-09 01:49 0.34003 -45.39790 36968 ft 493 kts 119°
2026-05-09 01:49 0.30740 -45.33755 36961 ft 493 kts 119°
2026-05-09 01:50 0.27481 -45.27729 36966 ft 493 kts 119°
2026-05-09 01:50 0.24223 -45.21705 36965 ft 493 kts 119°
2026-05-09 01:51 0.20964 -45.15679 36963 ft 493 kts 119°
2026-05-09 01:51 0.17711 -45.09664 36964 ft 492 kts 119°
2026-05-09 01:52 0.14458 -45.03648 36957 ft 492 kts 119°
2026-05-09 01:52 0.11208 -44.97638 36968 ft 491 kts 119°
2026-05-09 01:53 0.07958 -44.91629 36965 ft 492 kts 119°
2026-05-09 01:53 0.04709 -44.85623 36974 ft 491 kts 119°
2026-05-09 01:54 0.01459 -44.79613 36962 ft 492 kts 119°
2026-05-09 01:54 -0.01793 -44.73600 36970 ft 492 kts 119°
2026-05-09 01:55 -0.05045 -44.67586 36958 ft 492 kts 119°
2026-05-09 01:55 -0.08290 -44.61586 36963 ft 492 kts 119°
2026-05-09 01:56 -0.11540 -44.55578 36960 ft 491 kts 118°
2026-05-09 01:56 -0.14787 -44.49573 36959 ft 490 kts 119°
2026-05-09 01:57 -0.18003 -44.43625 36961 ft 490 kts 119°
2026-05-09 01:57 -0.21238 -44.37645 36969 ft 489 kts 118°
2026-05-09 01:58 -0.24469 -44.31669 36963 ft 488 kts 118°
2026-05-09 01:58 -0.27693 -44.25708 36963 ft 487 kts 118°
2026-05-09 01:59 -0.30910 -44.19759 36964 ft 486 kts 118°
2026-05-09 01:59 -0.34121 -44.13821 36963 ft 485 kts 118°
2026-05-09 02:00 -0.37329 -44.07888 36969 ft 485 kts 118°
2026-05-09 02:00 -0.40535 -44.01960 36970 ft 485 kts 118°
2026-05-09 02:01 -0.43741 -43.96029 36965 ft 485 kts 118°
2026-05-09 02:01 -0.46948 -43.90098 36963 ft 486 kts 118°
2026-05-09 02:02 -0.50162 -43.84155 36966 ft 486 kts 118°
2026-05-09 02:02 -0.53380 -43.78202 36959 ft 487 kts 118°
2026-05-09 02:03 -0.56599 -43.72248 36964 ft 488 kts 118°
2026-05-09 02:03 -0.59826 -43.66276 36962 ft 488 kts 118°
2026-05-09 02:04 -0.63102 -43.60328 36958 ft 488 kts 122°
2026-05-09 02:04 -0.67176 -43.54920 36959 ft 488 kts 131°
2026-05-09 02:05 -0.71727 -43.49889 36957 ft 488 kts 132°
2026-05-09 02:05 -0.76241 -43.44888 36957 ft 488 kts 132°
2026-05-09 02:06 -0.80759 -43.39832 36963 ft 487 kts 131°
2026-05-09 02:07 -0.87507 -43.32243 36962 ft 486 kts 131°
2026-05-09 02:07 -0.92004 -43.27185 36955 ft 485 kts 131°
2026-05-09 02:08 -0.96487 -43.22146 36960 ft 484 kts 131°
2026-05-09 02:08 -1.00206 -43.17966 36955 ft 484 kts 131°
2026-05-09 02:09 -1.04676 -43.12941 36961 ft 483 kts 131°
2026-05-09 02:09 -1.09140 -43.07922 36962 ft 483 kts 131°
2026-05-09 02:10 -1.13608 -43.02899 36959 ft 483 kts 131°
2026-05-09 02:10 -1.18079 -42.97872 36960 ft 484 kts 131°
2026-05-09 02:11 -1.22554 -42.92840 36962 ft 485 kts 132°
2026-05-09 02:11 -1.27043 -42.87792 36960 ft 486 kts 132°
2026-05-09 02:12 -1.31506 -42.82772 36961 ft 487 kts 131°
2026-05-09 02:12 -1.36009 -42.77707 36957 ft 487 kts 132°
2026-05-09 02:13 -1.40503 -42.72636 36956 ft 488 kts 132°
2026-05-09 02:13 -1.44998 -42.67551 36960 ft 488 kts 132°
2026-05-09 02:14 -1.49488 -42.62469 36958 ft 488 kts 132°
2026-05-09 02:14 -1.53984 -42.57383 36955 ft 488 kts 132°
2026-05-09 02:15 -1.58473 -42.52306 36959 ft 487 kts 132°
2026-05-09 02:15 -1.62960 -42.47230 36960 ft 487 kts 132°
2026-05-09 02:16 -1.67445 -42.42156 36956 ft 486 kts 132°
2026-05-09 02:16 -1.71922 -42.37091 36959 ft 486 kts 132°
2026-05-09 02:17 -1.76393 -42.32033 36956 ft 486 kts 132°
2026-05-09 02:17 -1.80868 -42.26968 36956 ft 485 kts 132°
2026-05-09 02:18 -1.85334 -42.21914 36959 ft 485 kts 132°
2026-05-09 02:18 -1.89804 -42.16856 36959 ft 485 kts 132°
2026-05-09 02:19 -1.94268 -42.11803 36956 ft 485 kts 131°
2026-05-09 02:19 -1.98703 -42.06782 36956 ft 485 kts 131°
2026-05-09 02:20 -2.03172 -42.01723 36957 ft 485 kts 131°
2026-05-09 02:20 -2.07634 -41.96670 36953 ft 485 kts 131°
2026-05-09 02:21 -2.12101 -41.91611 36962 ft 485 kts 131°
2026-05-09 02:21 -2.16567 -41.86553 36952 ft 485 kts 132°
2026-05-09 02:22 -2.21056 -41.81502 36958 ft 486 kts 132°
2026-05-09 02:22 -2.25568 -41.76468 36957 ft 486 kts 132°
2026-05-09 02:23 -2.30076 -41.71433 36956 ft 486 kts 132°
2026-05-09 02:23 -2.34586 -41.66387 36958 ft 487 kts 132°
2026-05-09 02:24 -2.39103 -41.61332 36962 ft 487 kts 132°
2026-05-09 02:24 -2.43615 -41.56280 36960 ft 488 kts 132°
2026-05-09 02:25 -2.48144 -41.51209 36952 ft 488 kts 132°
2026-05-09 02:25 -2.52666 -41.46149 36958 ft 488 kts 132°
2026-05-09 02:26 -2.57200 -41.41077 36963 ft 489 kts 132°
2026-05-09 02:26 -2.61733 -41.36004 36960 ft 490 kts 132°
2026-05-09 02:27 -2.66273 -41.30921 36956 ft 490 kts 132°
2026-05-09 02:27 -2.70810 -41.25841 36956 ft 490 kts 132°
2026-05-09 02:28 -2.75348 -41.20759 36956 ft 490 kts 132°
2026-05-09 02:28 -2.79887 -41.15676 36958 ft 490 kts 132°
2026-05-09 02:29 -2.84423 -41.10594 36961 ft 489 kts 132°
2026-05-09 02:29 -2.88926 -41.05549 36955 ft 489 kts 132°
2026-05-09 02:30 -2.93453 -41.00477 36956 ft 489 kts 132°
2026-05-09 02:30 -2.97981 -40.95403 36965 ft 489 kts 132°
2026-05-09 02:31 -3.02515 -40.90320 36966 ft 490 kts 132°
2026-05-09 02:31 -3.07058 -40.85227 36958 ft 490 kts 132°
2026-05-09 02:32 -3.11594 -40.80140 36961 ft 490 kts 132°
2026-05-09 02:32 -3.16129 -40.75058 36964 ft 489 kts 132°
2026-05-09 02:33 -3.20667 -40.69973 36961 ft 489 kts 132°
2026-05-09 02:33 -3.25195 -40.64897 36968 ft 488 kts 132°
2026-05-09 02:34 -3.29720 -40.59821 36969 ft 488 kts 132°
2026-05-09 02:34 -3.34136 -40.54707 36962 ft 488 kts 125°
2026-05-09 02:35 -3.37187 -40.48680 36975 ft 487 kts 108°
2026-05-09 02:35 -3.38673 -40.42077 36977 ft 487 kts 100°
2026-05-09 02:36 -3.39936 -40.35411 36967 ft 488 kts 101°
2026-05-09 02:36 -3.41267 -40.28748 36972 ft 488 kts 101°
2026-05-09 02:37 -3.42630 -40.22085 36974 ft 489 kts 101°
2026-05-09 02:37 -3.43991 -40.15416 36967 ft 489 kts 101°
2026-05-09 02:38 -3.45028 -40.08681 36967 ft 489 kts 97°
2026-05-09 02:38 -3.45934 -40.01935 36970 ft 489 kts 98°
2026-05-09 02:39 -3.47277 -39.95260 36975 ft 489 kts 102°
2026-05-09 02:39 -3.48732 -39.88617 36967 ft 489 kts 102°
2026-05-09 02:40 -3.50171 -39.81978 36968 ft 488 kts 102°
2026-05-09 02:40 -3.51595 -39.75320 36968 ft 488 kts 102°
2026-05-09 02:41 -3.53012 -39.68668 36975 ft 489 kts 102°
2026-05-09 02:41 -3.54432 -39.61997 36973 ft 492 kts 102°
2026-05-09 02:42 -3.55861 -39.55287 36981 ft 493 kts 102°
2026-05-09 02:42 -3.57293 -39.48569 36967 ft 494 kts 102°
2026-05-09 02:43 -3.58724 -39.41848 36965 ft 493 kts 102°
2026-05-09 02:43 -3.60149 -39.35148 36969 ft 491 kts 102°
2026-05-09 02:44 -3.61571 -39.28465 36964 ft 490 kts 102°
2026-05-09 02:44 -3.62978 -39.21846 36966 ft 489 kts 102°
2026-05-09 02:45 -3.64393 -39.15199 36965 ft 488 kts 102°
2026-05-09 02:45 -3.65803 -39.08572 36968 ft 487 kts 102°
2026-05-09 02:46 -3.67214 -39.01938 36967 ft 487 kts 102°
2026-05-09 02:46 -3.68625 -38.95303 36967 ft 487 kts 102°
2026-05-09 02:47 -3.70034 -38.88671 36968 ft 487 kts 102°
2026-05-09 02:47 -3.71446 -38.82022 36968 ft 488 kts 102°
2026-05-09 02:48 -3.72858 -38.75372 36968 ft 488 kts 102°
2026-05-09 02:48 -3.74269 -38.68723 36968 ft 489 kts 102°
2026-05-09 02:49 -3.75683 -38.62053 36964 ft 489 kts 102°
2026-05-09 02:49 -3.77323 -38.55441 36957 ft 490 kts 109°
2026-05-09 02:50 -3.80072 -38.49222 36967 ft 489 kts 118°
2026-05-09 02:50 -3.83326 -38.43238 36969 ft 490 kts 119°
2026-05-09 02:51 -3.86587 -38.37239 36966 ft 490 kts 118°
2026-05-09 02:51 -3.89798 -38.31264 36964 ft 490 kts 118°
2026-05-09 02:52 -3.93017 -38.25237 36962 ft 490 kts 118°
2026-05-09 02:52 -3.96228 -38.19217 36963 ft 490 kts 118°
2026-05-09 02:53 -3.98904 -38.14204 36961 ft 490 kts 118°
2026-05-09 02:53 -4.02115 -38.08186 36966 ft 490 kts 118°
2026-05-09 02:54 -4.05333 -38.02157 36973 ft 490 kts 118°
2026-05-09 02:54 -4.08549 -37.96131 36966 ft 491 kts 118°
2026-05-09 02:55 -4.11773 -37.90086 36964 ft 491 kts 118°
2026-05-09 02:55 -4.14993 -37.84049 36963 ft 492 kts 118°
2026-05-09 02:56 -4.18214 -37.78008 36971 ft 492 kts 118°
2026-05-09 02:56 -4.21437 -37.71963 36966 ft 492 kts 118°
2026-05-09 02:57 -4.24666 -37.65903 36962 ft 493 kts 118°
2026-05-09 02:57 -4.27894 -37.59846 36971 ft 493 kts 118°
2026-05-09 02:58 -4.31125 -37.53779 36966 ft 494 kts 118°
2026-05-09 02:58 -4.34358 -37.47709 36972 ft 494 kts 118°
2026-05-09 02:59 -4.37592 -37.41637 36964 ft 495 kts 118°
2026-05-09 02:59 -4.40830 -37.35554 36969 ft 495 kts 118°
2026-05-09 03:00 -4.44050 -37.29502 36964 ft 496 kts 118°
2026-05-09 03:00 -4.47318 -37.23361 36974 ft 495 kts 118°
2026-05-09 03:01 -4.50557 -37.17273 36967 ft 495 kts 118°
2026-05-09 03:01 -4.53796 -37.11180 36969 ft 495 kts 118°
2026-05-09 03:02 -4.57035 -37.05088 36966 ft 495 kts 118°
2026-05-09 03:02 -4.60271 -36.99000 36968 ft 494 kts 118°
2026-05-09 03:03 -4.63504 -36.92916 36966 ft 494 kts 117°
2026-05-09 03:03 -4.66733 -36.86835 36966 ft 494 kts 117°
2026-05-09 03:04 -4.69947 -36.80747 36969 ft 494 kts 116°
2026-05-09 03:04 -4.72571 -36.74432 36974 ft 494 kts 110°
2026-05-09 03:05 -4.75031 -36.68003 36964 ft 495 kts 110°
2026-05-09 03:05 -4.77509 -36.61565 36968 ft 495 kts 111°
2026-05-09 03:06 -4.80016 -36.55123 36956 ft 496 kts 111°
2026-05-09 03:06 -4.82528 -36.48696 36967 ft 496 kts 111°
2026-05-09 03:07 -4.85047 -36.42249 36968 ft 496 kts 111°
2026-05-09 03:07 -4.87562 -36.35807 36966 ft 496 kts 111°
2026-05-09 03:08 -4.90073 -36.29368 36968 ft 495 kts 111°
2026-05-09 03:08 -4.92585 -36.22927 36963 ft 495 kts 111°
2026-05-09 03:09 -4.95090 -36.16502 36961 ft 495 kts 111°
2026-05-09 03:09 -4.97592 -36.10082 36966 ft 494 kts 111°
2026-05-09 03:10 -5.00095 -36.03658 36972 ft 494 kts 111°
2026-05-09 03:10 -5.02595 -35.97239 36967 ft 494 kts 111°
2026-05-09 03:11 -5.05079 -35.90858 36968 ft 494 kts 111°
2026-05-09 03:11 -5.07577 -35.84440 36968 ft 494 kts 111°
2026-05-09 03:12 -5.10074 -35.78021 36976 ft 494 kts 111°
2026-05-09 03:12 -5.12571 -35.71603 36971 ft 494 kts 110°
2026-05-09 03:13 -5.16318 -35.61966 36970 ft 494 kts 110°
2026-05-09 03:13 -5.18817 -35.55536 36971 ft 494 kts 110°
2026-05-09 03:14 -5.21317 -35.49101 36971 ft 494 kts 110°
2026-05-09 03:14 -5.23808 -35.42685 36965 ft 494 kts 110°
2026-05-09 03:15 -5.26303 -35.36260 36969 ft 493 kts 110°
2026-05-09 03:15 -5.28791 -35.29849 36971 ft 493 kts 110°
2026-05-09 03:16 -5.31280 -35.23434 36964 ft 493 kts 110°
2026-05-09 03:16 -5.33766 -35.17023 36968 ft 493 kts 110°
2026-05-09 03:17 -5.36255 -35.10602 36967 ft 493 kts 110°
2026-05-09 03:17 -5.38742 -35.04184 36968 ft 493 kts 110°
2026-05-09 03:18 -5.41215 -34.97801 36965 ft 494 kts 110°
2026-05-09 03:18 -5.43702 -34.91378 36963 ft 494 kts 110°
2026-05-09 03:19 -5.46194 -34.84942 36967 ft 494 kts 110°
2026-05-09 03:19 -5.48682 -34.78510 36966 ft 495 kts 110°
2026-05-09 03:20 -5.51072 -34.72030 36961 ft 494 kts 105°
2026-05-09 03:20 -5.52421 -34.65275 36958 ft 493 kts 95°
2026-05-09 03:21 -5.53087 -34.58437 36965 ft 493 kts 94°
2026-05-09 03:21 -5.53746 -34.51586 36960 ft 493 kts 95°
2026-05-09 03:22 -5.54437 -34.44732 36959 ft 493 kts 95°
2026-05-09 03:22 -5.55144 -34.37887 36959 ft 493 kts 95°
2026-05-09 03:23 -5.55852 -34.31047 36963 ft 493 kts 95°
2026-05-09 03:23 -5.56560 -34.24194 36961 ft 493 kts 95°
2026-05-09 03:24 -5.57260 -34.17401 36962 ft 493 kts 94°
2026-05-09 03:24 -5.57964 -34.10555 36960 ft 493 kts 94°
2026-05-09 03:25 -5.58667 -34.03709 36960 ft 493 kts 94°
2026-05-09 03:25 -5.59370 -33.96866 36958 ft 493 kts 94°
2026-05-09 03:26 -5.60072 -33.90017 36959 ft 493 kts 94°
2026-05-09 03:26 -5.60773 -33.83173 36954 ft 493 kts 94°
2026-05-09 03:27 -5.61472 -33.76332 36955 ft 493 kts 94°
2026-05-09 03:27 -5.62171 -33.69486 36962 ft 493 kts 94°
2026-05-09 03:28 -5.62871 -33.62636 36954 ft 493 kts 94°
2026-05-09 03:28 -5.63569 -33.55784 36960 ft 493 kts 94°
2026-05-09 03:29 -5.64267 -33.48926 36954 ft 494 kts 94°
2026-05-09 03:29 -5.64964 -33.42066 36955 ft 494 kts 94°
2026-05-09 03:30 -5.65661 -33.35206 36957 ft 494 kts 94°
2026-05-09 03:30 -5.66358 -33.28329 36956 ft 495 kts 94°
2026-05-09 03:31 -5.67054 -33.21459 36955 ft 495 kts 94°
2026-05-09 03:31 -5.67751 -33.14572 36949 ft 496 kts 94°
2026-05-09 03:32 -5.68443 -33.07730 36954 ft 496 kts 94°
2026-05-09 03:32 -5.69139 -33.00838 36954 ft 496 kts 94°
2026-05-09 03:33 -5.69834 -32.93942 36952 ft 497 kts 94°
2026-05-09 03:33 -5.70529 -32.87039 36955 ft 497 kts 94°
2026-05-09 03:34 -5.71224 -32.80137 36947 ft 497 kts 94°
2026-05-09 03:34 -5.71917 -32.73238 36950 ft 497 kts 94°
2026-05-09 03:35 -5.72610 -32.66324 36953 ft 497 kts 94°
2026-05-09 03:35 -5.73303 -32.59415 36950 ft 497 kts 94°
2026-05-09 03:36 -5.73878 -32.53671 36952 ft 497 kts 94°
2026-05-09 03:36 -5.74569 -32.46758 36950 ft 497 kts 94°
2026-05-09 03:37 -5.75259 -32.39852 36951 ft 497 kts 94°
2026-05-09 03:37 -5.75949 -32.32939 36953 ft 497 kts 93°
2026-05-09 03:38 -5.76636 -32.26036 36949 ft 497 kts 93°
2026-05-09 03:38 -5.77323 -32.19133 36947 ft 497 kts 93°
2026-05-09 03:39 -5.78008 -32.12238 36955 ft 496 kts 93°
2026-05-09 03:39 -5.78693 -32.05341 36949 ft 496 kts 94°
2026-05-09 03:40 -5.79402 -31.98461 36950 ft 496 kts 96°
2026-05-09 03:40 -5.81047 -31.91720 36952 ft 498 kts 107°
2026-05-09 03:41 -5.83777 -31.85306 36950 ft 500 kts 113°
2026-05-09 03:41 -5.86712 -31.78973 36949 ft 501 kts 114°
2026-05-09 03:42 -5.89641 -31.72604 36946 ft 502 kts 113°
2026-05-09 03:42 -5.92542 -31.66220 36949 ft 503 kts 113°
2026-05-09 03:43 -5.95435 -31.59823 36947 ft 504 kts 113°
2026-05-09 03:43 -5.98316 -31.53445 36942 ft 504 kts 113°
2026-05-09 03:44 -6.01231 -31.46993 36947 ft 504 kts 113°
2026-05-09 03:44 -6.04131 -31.40575 36941 ft 504 kts 113°
2026-05-09 03:45 -6.07006 -31.34212 36937 ft 503 kts 113°
2026-05-09 03:45 -6.09899 -31.27806 36942 ft 503 kts 113°
2026-05-09 03:46 -6.12789 -31.21402 36943 ft 503 kts 113°
2026-05-09 03:46 -6.15674 -31.15008 36940 ft 502 kts 113°
2026-05-09 03:47 -6.18556 -31.08618 36941 ft 502 kts 113°
2026-05-09 03:47 -6.21439 -31.02225 36944 ft 502 kts 113°
2026-05-09 03:48 -6.24323 -30.95825 36945 ft 503 kts 113°
2026-05-09 03:48 -6.27207 -30.89424 36943 ft 503 kts 113°
2026-05-09 03:49 -6.30095 -30.83012 36943 ft 503 kts 113°
2026-05-09 03:49 -6.32983 -30.76597 36943 ft 503 kts 113°
2026-05-09 03:50 -6.35870 -30.70181 36939 ft 504 kts 113°
2026-05-09 03:50 -6.38754 -30.63771 36945 ft 503 kts 112°
2026-05-09 03:51 -6.41639 -30.57355 36940 ft 503 kts 113°
2026-05-09 03:51 -6.44519 -30.50947 36943 ft 502 kts 112°
2026-05-09 03:52 -6.47394 -30.44550 36939 ft 502 kts 112°
2026-05-09 03:52 -6.50263 -30.38160 36941 ft 502 kts 112°
2026-05-09 03:53 -6.53133 -30.31770 36945 ft 501 kts 112°
2026-05-09 03:53 -6.55995 -30.25391 36941 ft 500 kts 112°
2026-05-09 03:54 -6.58856 -30.19014 36939 ft 500 kts 112°
2026-05-09 03:54 -6.61701 -30.12669 36942 ft 501 kts 112°
2026-05-09 03:55 -6.64563 -30.06285 36941 ft 501 kts 112°
2026-05-09 03:55 -6.67428 -29.99891 36940 ft 501 kts 112°
2026-05-09 03:56 -6.70313 -29.93450 36938 ft 502 kts 112°
2026-05-09 03:56 -6.73158 -29.87095 36939 ft 502 kts 112°
2026-05-09 03:57 -6.76023 -29.80693 36945 ft 502 kts 112°
2026-05-09 03:57 -6.78887 -29.74292 36939 ft 502 kts 112°
2026-05-09 03:58 -6.81748 -29.67894 36940 ft 501 kts 112°
2026-05-09 03:58 -6.84608 -29.61495 36936 ft 501 kts 112°
2026-05-09 03:59 -6.87462 -29.55107 36941 ft 501 kts 112°
2026-05-09 03:59 -6.90316 -29.48717 36937 ft 500 kts 112°
2026-05-09 04:00 -6.93166 -29.42334 36942 ft 500 kts 112°
2026-05-09 04:00 -6.96012 -29.35955 36939 ft 500 kts 112°
2026-05-09 04:01 -6.98863 -29.29562 36943 ft 500 kts 112°
2026-05-09 04:01 -7.01709 -29.23180 36942 ft 500 kts 112°
2026-05-09 04:02 -7.04555 -29.16794 36942 ft 500 kts 112°
2026-05-09 04:02 -7.07401 -29.10406 36940 ft 500 kts 112°
2026-05-09 04:03 -7.10249 -29.04008 36941 ft 500 kts 112°
2026-05-09 04:03 -7.13093 -28.97618 36940 ft 500 kts 112°
2026-05-09 04:04 -7.15939 -28.91223 36942 ft 500 kts 112°
2026-05-09 04:04 -7.18784 -28.84824 36939 ft 500 kts 112°
2026-05-09 04:05 -7.21627 -28.78430 36942 ft 500 kts 112°
2026-05-09 04:05 -7.24470 -28.72032 36942 ft 500 kts 112°
2026-05-09 04:06 -7.27293 -28.65674 36935 ft 500 kts 112°
2026-05-09 04:06 -7.30133 -28.59275 36938 ft 500 kts 112°
2026-05-09 04:07 -7.32972 -28.52879 36937 ft 500 kts 112°
2026-05-09 04:07 -7.35806 -28.46488 36932 ft 500 kts 112°
2026-05-09 04:08 -7.38643 -28.40089 36951 ft 500 kts 112°
2026-05-09 04:08 -7.41483 -28.33681 36946 ft 501 kts 112°
2026-05-09 04:09 -7.44323 -28.27268 36946 ft 502 kts 112°
2026-05-09 04:09 -7.47169 -28.20841 36945 ft 502 kts 112°
2026-05-09 04:10 -7.50013 -28.14413 36946 ft 502 kts 112°
2026-05-09 04:10 -7.52859 -28.07979 36952 ft 503 kts 112°
2026-05-09 04:11 -7.55707 -28.01539 36943 ft 503 kts 112°
2026-05-09 04:11 -7.58550 -27.95107 36944 ft 503 kts 112°
2026-05-09 04:12 -7.61396 -27.88661 36944 ft 503 kts 112°
2026-05-09 04:12 -7.64236 -27.82229 36941 ft 502 kts 112°
2026-05-09 04:13 -7.67079 -27.75788 36944 ft 502 kts 112°
2026-05-09 04:13 -7.69915 -27.69357 36946 ft 502 kts 112°
2026-05-09 04:14 -7.72755 -27.62915 36948 ft 502 kts 112°
2026-05-09 04:14 -7.75591 -27.56479 36947 ft 503 kts 112°
2026-05-09 04:15 -7.78432 -27.50030 36946 ft 503 kts 112°
2026-05-09 04:15 -7.81253 -27.43623 36947 ft 504 kts 112°
2026-05-09 04:16 -7.84098 -27.37158 36950 ft 504 kts 112°
2026-05-09 04:16 -7.86940 -27.30695 36948 ft 505 kts 112°
2026-05-09 04:17 -7.89786 -27.24221 36951 ft 505 kts 112°
2026-05-09 04:17 -7.92632 -27.17744 36949 ft 505 kts 112°
2026-05-09 04:18 -7.95476 -27.11269 36944 ft 505 kts 112°
2026-05-09 04:18 -7.98319 -27.04793 36954 ft 505 kts 112°
2026-05-09 04:19 -8.01159 -26.98319 36947 ft 504 kts 112°
2026-05-09 04:19 -8.03520 -26.92935 36951 ft 504 kts 112°
2026-05-09 04:20 -8.06350 -26.86481 36947 ft 504 kts 112°
2026-05-09 04:20 -8.09187 -26.80005 36952 ft 504 kts 112°
2026-05-09 04:21 -8.12022 -26.73531 36946 ft 504 kts 112°
2026-05-09 04:22 -8.16273 -26.63818 36949 ft 505 kts 112°
2026-05-09 04:22 -8.19111 -26.57329 36953 ft 505 kts 112°
2026-05-09 04:23 -8.21946 -26.50844 36956 ft 506 kts 111°
2026-05-09 04:23 -8.24788 -26.44339 36953 ft 506 kts 111°
2026-05-09 04:24 -8.27626 -26.37839 36954 ft 506 kts 111°
2026-05-09 04:24 -8.30466 -26.31334 36953 ft 506 kts 111°
2026-05-09 04:25 -8.33307 -26.24821 36954 ft 506 kts 111°
2026-05-09 04:25 -8.36148 -26.18306 36954 ft 506 kts 111°
2026-05-09 04:26 -8.38966 -26.11840 36954 ft 507 kts 111°
2026-05-09 04:26 -8.41805 -26.05322 36954 ft 507 kts 111°
2026-05-09 04:27 -8.44640 -25.98810 36956 ft 506 kts 111°
2026-05-09 04:27 -8.47472 -25.92300 36952 ft 506 kts 111°
2026-05-09 04:28 -8.50305 -25.85785 36957 ft 506 kts 111°
2026-05-09 04:28 -8.53137 -25.79270 36955 ft 506 kts 111°
2026-05-09 04:29 -8.55966 -25.72758 36952 ft 506 kts 111°
2026-05-09 04:29 -8.58796 -25.66240 36959 ft 507 kts 111°
2026-05-09 04:30 -8.61627 -25.59717 36959 ft 507 kts 111°
2026-05-09 04:30 -8.64459 -25.53187 36957 ft 507 kts 111°
2026-05-09 04:31 -8.67269 -25.46704 36961 ft 507 kts 111°
2026-05-09 04:31 -8.70100 -25.40171 36956 ft 507 kts 111°
2026-05-09 04:32 -8.72932 -25.33632 36959 ft 507 kts 111°
2026-05-09 04:32 -8.75759 -25.27099 36961 ft 507 kts 111°
2026-05-09 04:33 -8.78585 -25.20564 36963 ft 507 kts 111°
2026-05-09 04:33 -8.81410 -25.14030 36963 ft 507 kts 111°
2026-05-09 04:34 -8.84235 -25.07493 36961 ft 507 kts 111°
2026-05-09 04:34 -8.87057 -25.00958 36971 ft 507 kts 111°
2026-05-09 04:35 -8.89875 -24.94428 36950 ft 506 kts 111°
2026-05-09 04:35 -8.92686 -24.87912 36972 ft 505 kts 111°
2026-05-09 04:36 -8.95493 -24.81399 36953 ft 504 kts 111°
2026-05-09 04:36 -8.98297 -24.74892 36961 ft 504 kts 111°
2026-05-09 04:37 -9.01098 -24.68387 36970 ft 504 kts 111°
2026-05-09 04:37 -9.03882 -24.61918 36967 ft 504 kts 111°
2026-05-09 04:38 -9.06679 -24.55416 36972 ft 505 kts 111°
2026-05-09 04:38 -9.09481 -24.48898 36959 ft 505 kts 111°
2026-05-09 04:39 -9.12283 -24.42375 36975 ft 506 kts 111°
2026-05-09 04:39 -9.15086 -24.35849 36976 ft 506 kts 111°
2026-05-09 04:40 -9.17890 -24.29316 36970 ft 506 kts 111°
2026-05-09 04:40 -9.20697 -24.22771 36956 ft 506 kts 111°
2026-05-09 04:41 -9.23497 -24.16239 36977 ft 506 kts 111°
2026-05-09 04:41 -9.26299 -24.09699 36974 ft 506 kts 111°
2026-05-09 04:42 -9.29100 -24.03156 36973 ft 506 kts 111°
2026-05-09 04:42 -9.31899 -23.96615 36961 ft 506 kts 111°
2026-05-09 04:43 -9.34697 -23.90072 36976 ft 506 kts 111°
2026-05-09 04:43 -9.37492 -23.83534 36981 ft 506 kts 111°
2026-05-09 04:44 -9.40292 -23.76979 36963 ft 507 kts 111°
2026-05-09 04:44 -9.43093 -23.70418 36961 ft 508 kts 111°
2026-05-09 04:45 -9.45898 -23.63843 36974 ft 508 kts 111°
2026-05-09 04:45 -9.48701 -23.57268 36976 ft 508 kts 111°
2026-05-09 04:46 -9.51488 -23.50729 36979 ft 509 kts 111°
2026-05-09 04:46 -9.54292 -23.44146 36963 ft 509 kts 111°
2026-05-09 04:47 -9.57092 -23.37567 36976 ft 509 kts 111°
2026-05-09 04:47 -9.59894 -23.30979 36981 ft 508 kts 111°
2026-05-09 04:48 -9.62690 -23.24402 36979 ft 508 kts 111°
2026-05-09 04:48 -9.65483 -23.17827 36963 ft 508 kts 111°
2026-05-09 04:49 -9.68279 -23.11244 36968 ft 508 kts 111°
2026-05-09 04:49 -9.71071 -23.04664 36982 ft 507 kts 111°
2026-05-09 04:50 -9.73857 -22.98093 36978 ft 507 kts 111°
2026-05-09 04:50 -9.76642 -22.91521 36959 ft 508 kts 111°
2026-05-09 04:51 -9.79412 -22.84981 36982 ft 508 kts 111°
2026-05-09 04:51 -9.82205 -22.78381 36983 ft 509 kts 111°
2026-05-09 04:52 -9.85000 -22.71776 36983 ft 510 kts 111°
2026-05-09 04:52 -9.87795 -22.65162 36972 ft 511 kts 111°
2026-05-09 04:53 -9.90596 -22.58534 36984 ft 511 kts 111°